| time (UTC) | temp C | wind direction | speed KPH | gust KPH | rain 1hr cm | rain 24hr cm | rain mn cm | humidity % | barometer mb |
| 20260509004509 | 24 | 245 | 0.0 | 9.7 | 0.00 | 0.00 | 0.00 | 22 | 1007.0 |
| 20260509004008 | 24 | 216 | 3.2 | 14.5 | 0.00 | 0.00 | 0.00 | 23 | 1007.0 |
| 20260509003506 | 24 | 311 | 4.8 | 17.7 | 0.00 | 0.00 | 0.00 | 24 | 1007.1 |
| 20260509003014 | 24 | 268 | 6.4 | 17.7 | 0.00 | 0.00 | 0.00 | 24 | 1007.1 |
| 20260509002505 | 24 | 355 | 6.4 | 16.1 | 0.00 | 0.00 | 0.00 | 23 | 1007.2 |
| 20260509002003 | 24 | 304 | 1.6 | 16.1 | 0.00 | 0.00 | 0.00 | 22 | 1007.1 |
| 20260509001502 | 24 | 345 | 3.2 | 12.9 | 0.00 | 0.00 | 0.00 | 24 | 1007.1 |
| 20260509001059 | 23 | 303 | 3.2 | 16.1 | 0.00 | 0.00 | 0.00 | 23 | 1007.1 |
| 20260509000558 | 23 | 307 | 9.7 | 16.1 | 0.00 | 0.00 | 0.00 | 23 | 1007.1 |
| 20260509000058 | 23 | 289 | 4.8 | 17.7 | 0.00 | 0.00 | 0.00 | 23 | 1007.2 |
| 20260508235555 | 24 | 304 | 8.0 | 19.3 | 0.00 | 0.00 | 0.00 | 24 | 1007.3 |
| 20260508235054 | 24 | 5 | 8.0 | 17.7 | 0.00 | 0.00 | 0.00 | 24 | 1007.2 |
| 20260508234553 | 23 | 345 | 6.4 | 30.6 | 0.00 | 0.00 | 0.00 | 27 | 1007.3 |
| 20260508234052 | 23 | 345 | 16.1 | 33.8 | 0.00 | 0.00 | 0.00 | 25 | 1007.3 |
| 20260508233551 | 23 | 289 | 11.3 | 25.7 | 0.00 | 0.00 | 0.00 | 25 | 1007.3 |
| 20260508233049 | 24 | 305 | 16.1 | 25.7 | 0.00 | 0.00 | 0.00 | 24 | 1007.3 |
| 20260508232551 | 24 | 270 | 16.1 | 24.1 | 0.00 | 0.00 | 0.00 | 25 | 1007.0 |
| 20260508232046 | 24 | 284 | 8.0 | 19.3 | 0.00 | 0.00 | 0.00 | 23 | 1007.2 |
| 20260508231544 | 24 | 296 | 6.4 | 29.0 | 0.00 | 0.00 | 0.00 | 23 | 1007.2 |
| 20260508231043 | 24 | 350 | 9.7 | 29.0 | 0.00 | 0.00 | 0.00 | 25 | 1007.2 |
| 20260508230541 | 24 | 240 | 9.7 | 16.1 | 0.00 | 0.00 | 0.00 | 24 | 1007.2 |
| 20260508230040 | 24 | 328 | 6.4 | 27.4 | 0.00 | 0.00 | 0.00 | 24 | 1007.4 |
| 20260508225539 | 24 | 345 | 14.5 | 27.4 | 0.00 | 0.00 | 0.00 | 25 | 1007.4 |
| 20260508225038 | 24 | 355 | 6.4 | 24.1 | 0.00 | 0.00 | 0.00 | 26 | 1007.4 |
| 20260508224537 | 24 | 355 | 11.3 | 24.1 | 0.00 | 0.00 | 0.00 | 25 | 1007.4 |
| 20260508224035 | 24 | 28 | 12.9 | 27.4 | 0.00 | 0.00 | 0.00 | 25 | 1007.5 |
| 20260508223533 | 23 | 355 | 11.3 | 27.4 | 0.00 | 0.00 | 0.00 | 26 | 1007.6 |
| 20260508223040 | 23 | 324 | 9.7 | 22.5 | 0.00 | 0.00 | 0.00 | 27 | 1007.7 |
| 20260508222529 | 24 | 26 | 11.3 | 24.1 | 0.00 | 0.00 | 0.00 | 26 | 1007.8 |
| 20260508222028 | 23 | 350 | 14.5 | 24.1 | 0.00 | 0.00 | 0.00 | 25 | 1007.8 |
| 20260508221527 | 23 | 3 | 6.4 | 22.5 | 0.00 | 0.00 | 0.00 | 25 | 1007.9 |
| 20260508221029 | 23 | 53 | 6.4 | 19.3 | 0.00 | 0.00 | 0.00 | 26 | 1008.0 |
| 20260508220526 | 23 | 331 | 11.3 | 19.3 | 0.00 | 0.00 | 0.00 | 25 | 1008.0 |
| 20260508220024 | 23 | 345 | 4.8 | 20.9 | 0.00 | 0.00 | 0.00 | 28 | 1008.2 |
| 20260508215521 | 23 | 345 | 14.5 | 20.9 | 0.00 | 0.00 | 0.00 | 27 | 1008.2 |
| 20260508215020 | 23 | 359 | 9.7 | 24.1 | 0.00 | 0.00 | 0.00 | 28 | 1008.2 |
| 20260508214519 | 23 | 39 | 14.5 | 25.7 | 0.00 | 0.00 | 0.00 | 27 | 1008.2 |
| 20260508214017 | 23 | 39 | 16.1 | 25.7 | 0.00 | 0.00 | 0.00 | 28 | 1008.2 |
| 20260508213515 | 23 | 22 | 9.7 | 25.7 | 0.00 | 0.00 | 0.00 | 26 | 1008.2 |
| 20260508213016 | 23 | 45 | 12.9 | 35.4 | 0.00 | 0.00 | 0.00 | 26 | 1008.3 |
| 20260508212513 | 23 | 286 | 4.8 | 17.7 | 0.00 | 0.00 | 0.00 | 27 | 1008.3 |
| 20260508212016 | 23 | 267 | 11.3 | 19.3 | 0.00 | 0.00 | 0.00 | 27 | 1008.5 |
| 20260508211509 | 23 | 302 | 11.3 | 17.7 | 0.00 | 0.00 | 0.00 | 26 | 1008.4 |
| 20260508211008 | 23 | 269 | 3.2 | 20.9 | 0.00 | 0.00 | 0.00 | 26 | 1008.5 |
| 20260508210506 | 23 | 35 | 4.8 | 24.1 | 0.00 | 0.00 | 0.00 | 27 | 1008.6 |
| 20260508210005 | 23 | 355 | 16.1 | 24.1 | 0.00 | 0.00 | 0.00 | 27 | 1008.6 |
| 20260508205505 | 23 | 294 | 14.5 | 24.1 | 0.00 | 0.00 | 0.00 | 26 | 1008.7 |
| 20260508205003 | 23 | 276 | 14.5 | 22.5 | 0.00 | 0.00 | 0.00 | 27 | 1008.8 |
| 20260508204602 | 23 | 327 | 8.0 | 22.5 | 0.00 | 0.00 | 0.00 | 25 | 1008.8 |
| 20260508204503 | 23 | 314 | 6.4 | 24.1 | 0.00 | 0.00 | 0.00 | 25 | 1008.8 |
| 20260508204100 | 23 | 272 | 16.1 | 24.1 | 0.00 | 0.00 | 0.00 | 25 | 1008.8 |
| 20260508203557 | 23 | 328 | 14.5 | 24.1 | 0.00 | 0.00 | 0.00 | 27 | 1008.8 |
| 20260508203101 | 23 | 340 | 16.1 | 27.4 | 0.00 | 0.00 | 0.00 | 26 | 1009.0 |
| 20260508202554 | 23 | 276 | 12.9 | 27.4 | 0.00 | 0.00 | 0.00 | 26 | 1009.0 |
| 20260508202052 | 22 | 244 | 6.4 | 22.5 | 0.00 | 0.00 | 0.00 | 27 | 1009.0 |
| 20260508201553 | 23 | 276 | 14.5 | 20.9 | 0.00 | 0.00 | 0.00 | 28 | 1009.0 |
| 20260508201049 | 23 | 350 | 12.9 | 27.4 | 0.00 | 0.00 | 0.00 | 28 | 1009.1 |
| 20260508200548 | 23 | 14 | 12.9 | 32.2 | 0.00 | 0.00 | 0.00 | 28 | 1009.1 |
| 20260508200047 | 23 | 7 | 12.9 | 30.6 | 0.00 | 0.00 | 0.00 | 29 | 1009.1 |
| 20260508195545 | 22 | 36 | 19.3 | 30.6 | 0.00 | 0.00 | 0.00 | 28 | 1009.1 |
| 20260508195044 | 22 | 359 | 9.7 | 25.7 | 0.00 | 0.00 | 0.00 | 28 | 1009.2 |
| 20260508194542 | 22 | 62 | 14.5 | 25.7 | 0.00 | 0.00 | 0.00 | 30 | 1009.2 |
| 20260508194041 | 22 | 334 | 9.7 | 27.4 | 0.00 | 0.00 | 0.00 | 28 | 1009.3 |
| 20260508193540 | 22 | 12 | 8.0 | 29.0 | 0.00 | 0.00 | 0.00 | 29 | 1009.3 |
| 20260508193047 | 22 | 59 | 8.0 | 29.0 | 0.00 | 0.00 | 0.00 | 30 | 1009.3 |
| 20260508192537 | 22 | 3 | 14.5 | 25.7 | 0.00 | 0.00 | 0.00 | 29 | 1009.4 |
| 20260508192037 | 22 | 45 | 6.4 | 22.5 | 0.00 | 0.00 | 0.00 | 30 | 1009.4 |
| 20260508191535 | 22 | 30 | 11.3 | 29.0 | 0.00 | 0.00 | 0.00 | 29 | 1009.4 |
| 20260508191032 | 22 | 46 | 19.3 | 29.0 | 0.00 | 0.00 | 0.00 | 29 | 1009.6 |
| 20260508190531 | 22 | 331 | 17.7 | 27.4 | 0.00 | 0.00 | 0.00 | 29 | 1009.7 |
| 20260508190031 | 22 | 8 | 14.5 | 27.4 | 0.00 | 0.00 | 0.00 | 29 | 1009.7 |
| 20260508185529 | 22 | 35 | 11.3 | 27.4 | 0.00 | 0.00 | 0.00 | 29 | 1009.8 |
| 20260508185026 | 22 | 34 | 14.5 | 29.0 | 0.00 | 0.00 | 0.00 | 30 | 1009.8 |
| 20260508184529 | 22 | 45 | 17.7 | 30.6 | 0.00 | 0.00 | 0.00 | 29 | 1010.0 |
| 20260508184023 | 22 | 12 | 16.1 | 32.2 | 0.00 | 0.00 | 0.00 | 29 | 1010.0 |
| 20260508183527 | 22 | 350 | 20.9 | 32.2 | 0.00 | 0.00 | 0.00 | 29 | 1010.0 |
| 20260508183020 | 22 | 37 | 17.7 | 33.8 | 0.00 | 0.00 | 0.00 | 28 | 1010.1 |
| 20260508182519 | 22 | 55 | 19.3 | 33.8 | 0.00 | 0.00 | 0.00 | 29 | 1010.1 |
| 20260508182017 | 22 | 32 | 20.9 | 30.6 | 0.00 | 0.00 | 0.00 | 29 | 1010.1 |
| 20260508181517 | 21 | 21 | 17.7 | 33.8 | 0.00 | 0.00 | 0.00 | 30 | 1010.2 |
| 20260508181015 | 21 | 23 | 19.3 | 33.8 | 0.00 | 0.00 | 0.00 | 29 | 1010.3 |
| 20260508180514 | 21 | 32 | 19.3 | 32.2 | 0.00 | 0.00 | 0.00 | 29 | 1010.2 |
| 20260508180018 | 21 | 12 | 17.7 | 32.2 | 0.00 | 0.00 | 0.00 | 29 | 1010.4 |
| 20260508175511 | 22 | 326 | 19.3 | 29.0 | 0.00 | 0.00 | 0.00 | 31 | 1010.4 |
| 20260508175010 | 21 | 13 | 17.7 | 30.6 | 0.00 | 0.00 | 0.00 | 30 | 1010.5 |
| 20260508174512 | 22 | 10 | 16.1 | 30.6 | 0.00 | 0.00 | 0.00 | 30 | 1010.5 |
| 20260508174013 | 21 | 39 | 14.5 | 32.2 | 0.00 | 0.00 | 0.00 | 32 | 1010.5 |
| 20260508173505 | 21 | 14 | 17.7 | 37.0 | 0.00 | 0.00 | 0.00 | 32 | 1010.5 |
| 20260508173008 | 21 | 24 | 14.5 | 32.2 | 0.00 | 0.00 | 0.00 | 32 | 1010.5 |
| 20260508172503 | 21 | 345 | 17.7 | 32.2 | 0.00 | 0.00 | 0.00 | 32 | 1010.6 |
| 20260508172002 | 21 | 332 | 14.5 | 25.7 | 0.00 | 0.00 | 0.00 | 33 | 1010.6 |
| 20260508171600 | 21 | 1 | 16.1 | 29.0 | 0.00 | 0.00 | 0.00 | 32 | 1010.6 |
| 20260508171058 | 21 | 345 | 12.9 | 30.6 | 0.00 | 0.00 | 0.00 | 33 | 1010.7 |
| 20260508170557 | 21 | 359 | 14.5 | 30.6 | 0.00 | 0.00 | 0.00 | 32 | 1010.7 |
| 20260508170055 | 21 | 44 | 14.5 | 25.7 | 0.00 | 0.00 | 0.00 | 34 | 1010.6 |
| 20260508165557 | 21 | 355 | 17.7 | 27.4 | 0.00 | 0.00 | 0.00 | 34 | 1010.7 |
| 20260508165052 | 21 | 350 | 11.3 | 27.4 | 0.00 | 0.00 | 0.00 | 35 | 1010.6 |
| 20260508164552 | 21 | 5 | 17.7 | 27.4 | 0.00 | 0.00 | 0.00 | 34 | 1010.6 |
| 20260508164051 | 20 | 42 | 12.9 | 27.4 | 0.00 | 0.00 | 0.00 | 36 | 1010.5 |
| 20260508163553 | 20 | 26 | 17.7 | 27.4 | 0.00 | 0.00 | 0.00 | 35 | 1010.6 |
| 20260508163049 | 20 | 1 | 14.5 | 24.1 | 0.00 | 0.00 | 0.00 | 35 | 1010.6 |
| 20260508162545 | 20 | 345 | 17.7 | 25.7 | 0.00 | 0.00 | 0.00 | 35 | 1010.6 |
| 20260508162044 | 20 | 33 | 14.5 | 25.7 | 0.00 | 0.00 | 0.00 | 37 | 1010.6 |
| 20260508161543 | 20 | 7 | 11.3 | 19.3 | 0.00 | 0.00 | 0.00 | 39 | 1010.7 |
| 20260508161043 | 19 | 27 | 9.7 | 17.7 | 0.00 | 0.00 | 0.00 | 41 | 1010.7 |
| 20260508160543 | 18 | 24 | 9.7 | 16.1 | 0.00 | 0.00 | 0.00 | 41 | 1010.8 |
| 20260508160058 | 18 | 28 | 4.8 | 11.3 | 0.00 | 0.00 | 0.00 | 43 | 1010.8 |
| 20260508155539 | 17 | 355 | 3.2 | 9.7 | 0.00 | 0.00 | 0.00 | 44 | 1010.9 |
| 20260508155036 | 16 | 355 | 3.2 | 6.4 | 0.00 | 0.00 | 0.00 | 46 | 1011.0 |
| 20260508154534 | 16 | 53 | 0.0 | 3.2 | 0.00 | 0.00 | 0.00 | 48 | 1011.0 |
| 20260508154032 | 15 | 105 | 0.0 | 4.8 | 0.00 | 0.00 | 0.00 | 49 | 1011.1 |
| 20260508153531 | 15 | 105 | 0.0 | 4.8 | 0.00 | 0.00 | 0.00 | 50 | 1011.1 |
| 20260508153030 | 15 | 105 | 0.0 | 0.0 | 0.00 | 0.00 | 0.00 | 50 | 1011.2 |
| 20260508152527 | 15 | 105 | 0.0 | 0.0 | 0.00 | 0.00 | 0.00 | 49 | 1011.3 |
| 20260508152026 | 15 | 105 | 0.0 | 3.2 | 0.00 | 0.00 | 0.00 | 49 | 1011.3 |
| 20260508151524 | 14 | 105 | 0.0 | 3.2 | 0.00 | 0.00 | 0.00 | 51 | 1011.4 |
| 20260508151023 | 13 | 105 | 0.0 | 3.2 | 0.00 | 0.00 | 0.00 | 51 | 1011.4 |
| 20260508150522 | 13 | 105 | 0.0 | 4.8 | 0.00 | 0.00 | 0.00 | 50 | 1011.5 |
| 20260508150022 | 12 | 105 | 0.0 | 4.8 | 0.00 | 0.00 | 0.00 | 50 | 1011.5 |
| 20260508145519 | 12 | 105 | 1.6 | 4.8 | 0.00 | 0.00 | 0.00 | 49 | 1011.5 |
| 20260508145020 | 12 | 105 | 0.0 | 4.8 | 0.00 | 0.00 | 0.00 | 45 | 1011.7 |
| 20260508144516 | 11 | 105 | 0.0 | 4.8 | 0.00 | 0.00 | 0.00 | 40 | 1011.6 |
| 20260508144015 | 11 | 112 | 1.6 | 4.8 | 0.00 | 0.00 | 0.00 | 23 | 1011.5 |
| 20260508143513 | 10 | 218 | 0.0 | 1.6 | 0.00 | 0.00 | 0.00 | 1 | 1011.6 |
| 20260508143010 | 10 | 218 | 0.0 | 1.6 | 0.00 | 0.00 | 0.00 | 1 | 1011.7 |
| 20260508142509 | 9 | 218 | 0.0 | 3.2 | 0.00 | 0.00 | 0.00 | 1 | 1011.6 |
| 20260508142008 | 8 | 218 | 0.0 | 3.2 | 0.00 | 0.00 | 0.00 | 1 | 1011.6 |
| 20260508141506 | 7 | 218 | 0.0 | 0.0 | 0.00 | 0.00 | 0.00 | 1 | 1011.6 |
| 20260508141004 | 7 | 218 | 0.0 | 0.0 | 0.00 | 0.00 | 0.00 | 1 | 1011.5 |
| 20260508140503 | 7 | 218 | 0.0 | 0.0 | 0.00 | 0.00 | 0.00 | 1 | 1011.6 |
| 20260508140002 | 6 | 218 | 0.0 | 1.6 | 0.00 | 0.00 | 0.00 | 1 | 1011.7 |
| 20260508135600 | 6 | 218 | 0.0 | 3.2 | 0.00 | 0.00 | 0.00 | 1 | 1011.6 |
| 20260508135058 | 6 | 218 | 1.6 | 4.8 | 0.00 | 0.00 | 0.00 | 1 | 1011.5 |
| 20260508134559 | 5 | 218 | 1.6 | 4.8 | 0.00 | 0.00 | 0.00 | 1 | 1011.5 |
| 20260508134056 | 5 | 218 | 0.0 | 0.0 | 0.00 | 0.00 | 0.00 | 1 | 1011.3 |
| 20260508133558 | 4 | 218 | 0.0 | 0.0 | 0.00 | 0.00 | 0.00 | 1 | 1011.4 |
| 20260508133058 | 4 | 218 | 0.0 | 0.0 | 0.00 | 0.00 | 0.00 | 1 | 1011.4 |
| 20260508132551 | 3 | 218 | 0.0 | 0.0 | 0.00 | 0.00 | 0.00 | 1 | 1011.4 |
| 20260508132050 | 2 | 218 | 0.0 | 0.0 | 0.00 | 0.00 | 0.00 | 1 | 1011.4 |
| 20260508131549 | 2 | 218 | 0.0 | 1.6 | 0.00 | 0.00 | 0.00 | 1 | 1011.4 |
| 20260508131047 | 2 | 218 | 0.0 | 3.2 | 0.00 | 0.00 | 0.00 | 1 | 1011.3 |
| 20260508130546 | 1 | 218 | 1.6 | 3.2 | 0.00 | 0.00 | 0.00 | 1 | 1011.2 |
| 20260508130053 | 1 | 218 | 0.0 | 3.2 | 0.00 | 0.00 | 0.00 | 1 | 1011.3 |
| 20260508125543 | 1 | 218 | 0.0 | 3.2 | 0.00 | 0.00 | 0.00 | 1 | 1011.1 |
| 20260508125042 | 1 | 218 | 0.0 | 3.2 | 0.00 | 0.00 | 0.00 | 1 | 1011.1 |
| 20260508124540 | 1 | 218 | 0.0 | 3.2 | 0.00 | 0.00 | 0.00 | 1 | 1011.1 |
| 20260508124039 | 1 | 218 | 0.0 | 0.0 | 0.00 | 0.00 | 0.00 | 1 | 1010.9 |
| 20260508123538 | 1 | 218 | 0.0 | 3.2 | 0.00 | 0.00 | 0.00 | 1 | 1010.9 |
| 20260508123036 | 1 | 218 | 0.0 | 3.2 | 0.00 | 0.00 | 0.00 | 1 | 1010.8 |
| 20260508122534 | 1 | 218 | 0.0 | 0.0 | 0.00 | 0.00 | 0.00 | 1 | 1010.7 |
| 20260508122033 | 1 | 206 | 0.0 | 3.2 | 0.00 | 0.00 | 0.00 | 1 | 1010.7 |
| 20260508121552 | 1 | 206 | 1.6 | 3.2 | 0.00 | 0.00 | 0.00 | 1 | 1010.7 |
| 20260508121029 | 1 | 206 | 0.0 | 1.6 | 0.00 | 0.00 | 0.00 | 1 | 1010.7 |
| 20260508120528 | 1 | 206 | 0.0 | 0.0 | 0.00 | 0.00 | 0.00 | 1 | 1010.6 |
| 20260508120031 | 1 | 206 | 0.0 | 0.0 | 0.00 | 0.00 | 0.00 | 1 | 1010.6 |
| 20260508115527 | 1 | 206 | 0.0 | 0.0 | 0.00 | 0.00 | 0.00 | 1 | 1010.6 |
| 20260508115024 | 1 | 206 | 0.0 | 0.0 | 0.00 | 0.00 | 0.00 | 1 | 1010.6 |
| 20260508114523 | 1 | 206 | 0.0 | 3.2 | 0.00 | 0.00 | 0.00 | 1 | 1010.5 |
| 20260508114022 | 2 | 206 | 0.0 | 3.2 | 0.00 | 0.00 | 0.00 | 1 | 1010.5 |
| 20260508113521 | 2 | 206 | 0.0 | 0.0 | 0.00 | 0.00 | 0.00 | 1 | 1010.6 |
| 20260508113019 | 2 | 205 | 0.0 | 3.2 | 0.00 | 0.00 | 0.00 | 1 | 1010.4 |
| 20260508112516 | 2 | 205 | 0.0 | 3.2 | 0.00 | 0.00 | 0.00 | 1 | 1010.5 |
| 20260508112015 | 3 | 205 | 0.0 | 3.2 | 0.00 | 0.00 | 0.00 | 1 | 1010.5 |
| 20260508111514 | 3 | 205 | 1.6 | 4.8 | 0.00 | 0.00 | 0.00 | 1 | 1010.4 |
| 20260508111013 | 3 | 205 | 1.6 | 6.4 | 0.00 | 0.00 | 0.00 | 1 | 1010.5 |
| 20260508110512 | 3 | 205 | 3.2 | 8.0 | 0.00 | 0.00 | 0.00 | 1 | 1010.5 |
| 20260508110010 | 3 | 205 | 3.2 | 8.0 | 0.00 | 0.00 | 0.00 | 1 | 1010.4 |
| 20260508105513 | 3 | 225 | 3.2 | 11.3 | 0.00 | 0.00 | 0.00 | 1 | 1010.5 |
| 20260508105008 | 2 | 253 | 3.2 | 11.3 | 0.00 | 0.00 | 0.00 | 1 | 1010.4 |
| 20260508104506 | 2 | 253 | 1.6 | 6.4 | 0.00 | 0.00 | 0.00 | 1 | 1010.4 |
| 20260508104004 | 2 | 253 | 3.2 | 6.4 | 0.00 | 0.00 | 0.00 | 1 | 1010.3 |
| 20260508103503 | 2 | 253 | 1.6 | 6.4 | 0.00 | 0.00 | 0.00 | 1 | 1010.4 |
| 20260508103005 | 2 | 253 | 3.2 | 6.4 | 0.00 | 0.00 | 0.00 | 1 | 1010.4 |
| 20260508102600 | 2 | 253 | 1.6 | 6.4 | 0.00 | 0.00 | 0.00 | 1 | 1010.4 |
| 20260508102059 | 2 | 253 | 3.2 | 6.4 | 0.00 | 0.00 | 0.00 | 1 | 1010.3 |
| 20260508101657 | 2 | 253 | 1.6 | 4.8 | 0.00 | 0.00 | 0.00 | 1 | 1010.2 |
| 20260508101056 | 2 | 253 | 0.0 | 3.2 | 0.00 | 0.00 | 0.00 | 1 | 1010.1 |
| 20260508100554 | 2 | 253 | 0.0 | 3.2 | 0.00 | 0.00 | 0.00 | 1 | 1010.0 |
| 20260508100052 | 2 | 253 | 1.6 | 3.2 | 0.00 | 0.00 | 0.00 | 1 | 1010.0 |
| 20260508095551 | 2 | 253 | 0.0 | 4.8 | 0.00 | 0.00 | 0.00 | 1 | 1010.0 |
| 20260508095053 | 3 | 253 | 3.2 | 4.8 | 0.00 | 0.00 | 0.00 | 1 | 1009.9 |
| 20260508094603 | 3 | 253 | 3.2 | 4.8 | 0.00 | 0.00 | 0.00 | 1 | 1009.9 |
| 20260508094047 | 4 | 253 | 0.0 | 3.2 | 0.00 | 0.00 | 0.00 | 1 | 1009.8 |
| 20260508093547 | 4 | 253 | 0.0 | 4.8 | 0.00 | 0.00 | 0.00 | 1 | 1009.9 |
| 20260508093045 | 4 | 253 | 1.6 | 4.8 | 0.00 | 0.00 | 0.00 | 1 | 1009.8 |
| 20260508092542 | 5 | 253 | 0.0 | 0.0 | 0.00 | 0.00 | 0.00 | 1 | 1009.8 |
| 20260508092041 | 5 | 253 | 0.0 | 0.0 | 0.00 | 0.00 | 0.00 | 1 | 1009.8 |
| 20260508091541 | 5 | 253 | 0.0 | 3.2 | 0.00 | 0.00 | 0.00 | 1 | 1009.8 |
| 20260508091039 | 4 | 253 | 0.0 | 3.2 | 0.00 | 0.00 | 0.00 | 1 | 1009.8 |
| 20260508090539 | 4 | 253 | 1.6 | 4.8 | 0.00 | 0.00 | 0.00 | 1 | 1009.8 |
| 20260508090037 | 5 | 253 | 3.2 | 4.8 | 0.00 | 0.00 | 0.00 | 1 | 1009.8 |
| 20260508085535 | 5 | 253 | 1.6 | 4.8 | 0.00 | 0.00 | 0.00 | 1 | 1009.8 |
| 20260508085033 | 5 | 253 | 0.0 | 0.0 | 0.00 | 0.00 | 0.00 | 1 | 1009.8 |
| 20260508084533 | 5 | 253 | 0.0 | 0.0 | 0.00 | 0.00 | 0.00 | 1 | 1009.9 |
| 20260508084035 | 5 | 253 | 0.0 | 0.0 | 0.00 | 0.00 | 0.00 | 1 | 1009.9 |
| 20260508083529 | 4 | 253 | 0.0 | 0.0 | 0.00 | 0.00 | 0.00 | 1 | 1009.9 |
| 20260508083046 | 4 | 253 | 0.0 | 0.0 | 0.00 | 0.00 | 0.00 | 1 | 1009.9 |
| 20260508082515 | 5 | 253 | 0.0 | 0.0 | 0.00 | 0.00 | 0.00 | 1 | 1010.0 |
| 20260508082020 | 5 | 253 | 0.0 | 0.0 | 0.00 | 0.00 | 0.00 | 1 | 1010.0 |
| 20260508081513 | 5 | 253 | 0.0 | 0.0 | 0.00 | 0.00 | 0.00 | 1 | 1010.0 |
| 20260508081010 | 5 | 253 | 0.0 | 0.0 | 0.00 | 0.00 | 0.00 | 1 | 1009.9 |
| 20260508080510 | 4 | 253 | 0.0 | 0.0 | 0.00 | 0.00 | 0.00 | 1 | 1009.9 |
| 20260508075506 | 4 | 253 | 0.0 | 0.0 | 0.00 | 0.00 | 0.00 | 3 | 1010.0 |
| 20260508075004 | 5 | 253 | 0.0 | 3.2 | 0.00 | 0.00 | 0.00 | 2 | 1009.9 |
| 20260508074502 | 5 | 253 | 0.0 | 3.2 | 0.00 | 0.00 | 0.00 | 1 | 1009.9 |
| 20260508074002 | 5 | 253 | 0.0 | 3.2 | 0.00 | 0.00 | 0.00 | 1 | 1009.9 |
| 20260508073601 | 5 | 253 | 0.0 | 3.2 | 0.00 | 0.00 | 0.00 | 1 | 1009.9 |
| 20260508073101 | 5 | 253 | 0.0 | 0.0 | 0.00 | 0.00 | 0.00 | 1 | 1009.9 |
| 20260508072558 | 5 | 253 | 0.0 | 3.2 | 0.00 | 0.00 | 0.00 | 1 | 1009.8 |
| 20260508072056 | 5 | 253 | 0.0 | 3.2 | 0.00 | 0.00 | 0.00 | 1 | 1009.7 |
| 20260508071557 | 5 | 253 | 1.6 | 3.2 | 0.00 | 0.00 | 0.00 | 1 | 1009.8 |
| 20260508071053 | 5 | 253 | 0.0 | 3.2 | 0.00 | 0.00 | 0.00 | 1 | 1009.8 |
| 20260508070552 | 5 | 253 | 0.0 | 0.0 | 0.00 | 0.00 | 0.00 | 1 | 1009.8 |
| 20260508070053 | 5 | 253 | 0.0 | 0.0 | 0.00 | 0.00 | 0.00 | 7 | 1009.8 |
| 20260508065548 | 5 | 253 | 0.0 | 1.6 | 0.00 | 0.00 | 0.00 | 16 | 1009.7 |
| 20260508065047 | 5 | 253 | 0.0 | 6.4 | 0.00 | 0.00 | 0.00 | 25 | 1009.7 |
| 20260508064604 | 6 | 253 | 4.8 | 6.4 | 0.00 | 0.00 | 0.00 | 22 | 1009.7 |
| 20260508064044 | 7 | 253 | 0.0 | 4.8 | 0.00 | 0.00 | 0.00 | 13 | 1009.7 |
| 20260508063543 | 7 | 253 | 3.2 | 4.8 | 0.00 | 0.00 | 0.00 | 12 | 1009.6 |
| 20260508063044 | 7 | 253 | 0.0 | 4.8 | 0.00 | 0.00 | 0.00 | 7 | 1009.5 |
| 20260508062540 | 7 | 253 | 0.0 | 6.4 | 0.00 | 0.00 | 0.00 | 6 | 1009.6 |
| 20260508062039 | 7 | 253 | 1.6 | 6.4 | 0.00 | 0.00 | 0.00 | 13 | 1009.6 |
| 20260508061542 | 7 | 253 | 1.6 | 6.4 | 0.00 | 0.00 | 0.00 | 14 | 1009.7 |
| 20260508061037 | 7 | 253 | 3.2 | 6.4 | 0.00 | 0.00 | 0.00 | 14 | 1009.6 |
| 20260508060537 | 7 | 253 | 4.8 | 6.4 | 0.00 | 0.00 | 0.00 | 14 | 1009.5 |
| 20260508060034 | 7 | 263 | 1.6 | 4.8 | 0.00 | 0.00 | 0.00 | 15 | 1009.5 |
| 20260508055531 | 8 | 267 | 3.2 | 4.8 | 0.00 | 0.00 | 0.00 | 10 | 1009.3 |
| 20260508055030 | 8 | 141 | 0.0 | 3.2 | 0.00 | 0.00 | 0.00 | 10 | 1009.2 |
| 20260508054529 | 8 | 141 | 0.0 | 3.2 | 0.00 | 0.00 | 0.00 | 1 | 1009.2 |
| 20260508054026 | 7 | 141 | 0.0 | 3.2 | 0.00 | 0.00 | 0.00 | 22 | 1009.2 |
| 20260508053526 | 7 | 141 | 0.0 | 8.0 | 0.00 | 0.00 | 0.00 | 37 | 1009.2 |
| 20260508053026 | 7 | 141 | 4.8 | 8.0 | 0.00 | 0.00 | 0.00 | 41 | 1009.2 |
| 20260508052525 | 8 | 359 | 0.0 | 4.8 | 0.00 | 0.00 | 0.00 | 34 | 1009.0 |
| 20260508052020 | 9 | 359 | 0.0 | 3.2 | 0.00 | 0.00 | 0.00 | 15 | 1008.9 |
| 20260508051519 | 9 | 359 | 0.0 | 1.6 | 0.00 | 0.00 | 0.00 | 6 | 1008.8 |
| 20260508051018 | 9 | 359 | 0.0 | 1.6 | 0.00 | 0.00 | 0.00 | 18 | 1008.8 |
| 20260508050516 | 8 | 359 | 0.0 | 0.0 | 0.00 | 0.00 | 0.00 | 30 | 1008.7 |
| 20260508050020 | 8 | 359 | 0.0 | 0.0 | 0.00 | 0.00 | 0.00 | 43 | 1008.8 |
| 20260508045513 | 9 | 359 | 0.0 | 0.0 | 0.00 | 0.00 | 0.00 | 44 | 1008.7 |
| 20260508045012 | 9 | 359 | 0.0 | 0.0 | 0.00 | 0.00 | 0.00 | 46 | 1008.6 |
| 20260508044511 | 10 | 359 | 0.0 | 4.8 | 0.00 | 0.00 | 0.00 | 48 | 1008.6 |
| 20260508044010 | 10 | 359 | 0.0 | 4.8 | 0.00 | 0.00 | 0.00 | 50 | 1008.6 |
| 20260508043508 | 10 | 359 | 1.6 | 8.0 | 0.00 | 0.00 | 0.00 | 49 | 1008.6 |
| 20260508043007 | 10 | 359 | 1.6 | 8.0 | 0.00 | 0.00 | 0.00 | 51 | 1008.7 |
| 20260508042505 | 11 | 359 | 3.2 | 6.4 | 0.00 | 0.00 | 0.00 | 52 | 1008.6 |
| 20260508042003 | 11 | 359 | 0.0 | 3.2 | 0.00 | 0.00 | 0.00 | 53 | 1008.7 |
| 20260508041509 | 11 | 359 | 0.0 | 3.2 | 0.00 | 0.00 | 0.00 | 53 | 1008.6 |
| 20260508041001 | 12 | 359 | 0.0 | 1.6 | 0.00 | 0.00 | 0.00 | 53 | 1008.5 |
| 20260508040559 | 12 | 359 | 0.0 | 1.6 | 0.00 | 0.00 | 0.00 | 52 | 1008.5 |
| 20260508040111 | 12 | 359 | 0.0 | 6.4 | 0.00 | 0.00 | 0.00 | 52 | 1008.4 |
| 20260508035556 | 13 | 359 | 0.0 | 6.4 | 0.00 | 0.00 | 0.00 | 52 | 1008.4 |
| 20260508035501 | 13 | 359 | 1.6 | 6.4 | 0.00 | 0.00 | 0.00 | 52 | 1008.4 |
| 20260508035057 | 13 | 359 | 0.0 | 3.2 | 0.00 | 0.00 | 0.00 | 51 | 1008.4 |
| 20260508034556 | 13 | 359 | 0.0 | 3.2 | 0.00 | 0.00 | 0.00 | 50 | 1008.4 |
| 20260508034051 | 14 | 355 | 0.0 | 3.2 | 0.00 | 0.00 | 0.00 | 49 | 1008.2 |
| 20260508033552 | 15 | 359 | 0.0 | 4.8 | 0.00 | 0.00 | 0.00 | 48 | 1008.2 |
| 20260508033048 | 15 | 359 | 1.6 | 6.4 | 0.00 | 0.00 | 0.00 | 46 | 1008.1 |
| 20260508032547 | 15 | 359 | 1.6 | 8.0 | 0.00 | 0.00 | 0.00 | 46 | 1008.0 |
| 20260508032047 | 15 | 46 | 0.0 | 0.0 | 0.00 | 0.00 | 0.00 | 48 | 1008.1 |
| 20260508031544 | 14 | 335 | 0.0 | 0.0 | 0.00 | 0.00 | 0.00 | 48 | 1008.1 |
| 20260508031044 | 13 | 11 | 0.0 | 0.0 | 0.00 | 0.00 | 0.00 | 49 | 1008.0 |
| 20260508030542 | 13 | 11 | 0.0 | 0.0 | 0.00 | 0.00 | 0.00 | 49 | 1008.0 |
| 20260508030050 | 13 | 11 | 0.0 | 0.0 | 0.00 | 0.00 | 0.00 | 50 | 1007.9 |
| 20260508025539 | 13 | 245 | 0.0 | 0.0 | 0.00 | 0.00 | 0.00 | 50 | 1007.8 |
| 20260508025038 | 13 | 245 | 0.0 | 0.0 | 0.00 | 0.00 | 0.00 | 50 | 1007.7 |
| 20260508024546 | 14 | 245 | 0.0 | 6.4 | 0.00 | 0.00 | 0.00 | 48 | 1007.6 |
| 20260508024037 | 15 | 245 | 3.2 | 9.7 | 0.00 | 0.00 | 0.00 | 47 | 1007.5 |
| 20260508023534 | 15 | 250 | 6.4 | 9.7 | 0.00 | 0.00 | 0.00 | 46 | 1007.5 |
| 20260508023036 | 16 | 242 | 4.8 | 9.7 | 0.00 | 0.00 | 0.00 | 45 | 1007.6 |
| 20260508022531 | 17 | 246 | 0.0 | 9.7 | 0.00 | 0.00 | 0.00 | 42 | 1007.5 |
| 20260508022030 | 17 | 248 | 3.2 | 9.7 | 0.00 | 0.00 | 0.00 | 40 | 1007.5 |
| 20260508021528 | 18 | 213 | 0.0 | 4.8 | 0.00 | 0.00 | 0.00 | 39 | 1007.4 |
| 20260508021029 | 19 | 247 | 0.0 | 4.8 | 0.00 | 0.00 | 0.00 | 39 | 1007.5 |
| 20260508020526 | 20 | 248 | 1.6 | 6.4 | 0.00 | 0.00 | 0.00 | 38 | 1007.5 |
| 20260508020024 | 20 | 219 | 1.6 | 6.4 | 0.00 | 0.00 | 0.00 | 36 | 1007.5 |
| 20260508015523 | 21 | 224 | 1.6 | 6.4 | 0.00 | 0.00 | 0.00 | 35 | 1007.4 |
| 20260508015021 | 21 | 224 | 3.2 | 6.4 | 0.00 | 0.00 | 0.00 | 34 | 1007.5 |
| 20260508014530 | 22 | 258 | 3.2 | 6.4 | 0.00 | 0.00 | 0.00 | 33 | 1007.5 |
| 20260508014018 | 22 | 243 | 3.2 | 8.0 | 0.00 | 0.00 | 0.00 | 33 | 1007.6 |
| 20260508013518 | 22 | 253 | 3.2 | 11.3 | 0.00 | 0.00 | 0.00 | 33 | 1007.7 |
| 20260508013015 | 22 | 226 | 6.4 | 12.9 | 0.00 | 0.00 | 0.00 | 32 | 1007.8 |
| 20260508012518 | 22 | 244 | 4.8 | 11.3 | 0.00 | 0.00 | 0.00 | 31 | 1007.7 |
| 20260508012012 | 22 | 207 | 4.8 | 11.3 | 0.00 | 0.00 | 0.00 | 31 | 1007.8 |
| 20260508011510 | 22 | 263 | 3.2 | 14.5 | 0.00 | 0.00 | 0.00 | 29 | 1007.9 |
| 20260508011009 | 22 | 240 | 6.4 | 16.1 | 0.00 | 0.00 | 0.00 | 30 | 1007.9 |
| 20260508010508 | 22 | 267 | 6.4 | 17.7 | 0.00 | 0.00 | 0.00 | 29 | 1008.0 |
| 20260508010006 | 22 | 242 | 0.0 | 6.4 | 0.00 | 0.00 | 0.00 | 31 | 1008.0 |
| 20260508005513 | 22 | 226 | 3.2 | 6.4 | 0.00 | 0.00 | 0.00 | 31 | 1008.0 |
| 20260508005004 | 22 | 174 | 1.6 | 8.0 | 0.00 | 0.00 | 0.00 | 30 | 1008.0 |